Location: Mentone
(34.5413°N, 85.5351°W)
Time: 02:46:52
(UTC-06:00)

Vanguard 3 - All Passes

Search period start: 22 November 2014 00:00
Search period end: 02 December 2014 00:00
Orbit: 507 x 3278 km, 33.4° (Epoch: 20 November)

Date Brightness Start Highest point End Pass type
(mag) Time Alt. Az. Time Alt. Az. Time Alt. Az.
22 Nov - 10:29:29 10° SSE 10:34:34 14° SE 10:40:50 10° E daylight
22 Nov - 12:35:12 10° SW 12:46:12 50° SE 13:03:28 10° ENE daylight
22 Nov - 14:46:41 10° WSW 15:01:31 81° SSE 15:21:53 10° E daylight
22 Nov - 17:00:57 10° W 17:19:23 85° S 17:38:42 10° ESE visible
22 Nov - 19:17:09 10° WNW 19:36:39 61° SSW 19:52:32 10° SE visible
22 Nov - 21:36:40 10° W 21:50:45 27° SW 22:01:38 10° S visible
23 Nov - 11:24:46 10° SSW 11:33:30 33° SE 11:46:52 10° E daylight
23 Nov - 13:34:25 10° WSW 13:46:55 71° SSE 14:06:16 10° E daylight
23 Nov - 15:47:23 10° W 16:03:47 87° S 16:24:08 10° E daylight
23 Nov - 18:02:27 10° W 18:21:40 74° SSW 18:39:45 10° ESE visible
23 Nov - 20:19:47 10° W 20:37:27 41° SW 20:51:25 10° SSE visible
23 Nov - 22:47:15 10° WSW 22:50:06 11° SW 22:52:47 10° SW visible
24 Nov - 10:16:07 10° SSE 10:21:39 17° SE 10:28:55 10° E daylight
24 Nov - 12:22:56 10° SW 12:33:16 55° SSE 12:50:15 10° ENE daylight
24 Nov - 14:34:31 10° WSW 14:48:33 84° S 15:08:50 10° E daylight
24 Nov - 16:48:28 10° W 17:06:13 82° SSW 17:25:57 10° ESE visible
24 Nov - 19:04:19 10° WNW 19:23:17 56° SSW 19:39:45 10° SE visible
24 Nov - 21:24:17 10° W 21:37:25 23° SW 21:48:12 10° S visible
25 Nov - 11:12:21 10° SSW 11:20:37 36° SE 11:33:51 10° E daylight
25 Nov - 13:22:19 10° WSW 13:34:02 75° SSE 13:53:02 10° E daylight
25 Nov - 15:35:08 10° W 15:50:45 86° S 16:11:12 10° E daylight
25 Nov - 17:49:49 10° W 18:08:22 69° SSW 18:26:57 10° SE visible
25 Nov - 20:07:03 10° W 20:24:02 37° SW 20:38:18 10° SSE visible
26 Nov - 10:03:10 10° S 10:08:49 19° SE 10:16:38 10° E daylight
26 Nov - 12:10:48 10° SW 12:20:27 59° SSE 12:36:59 10° ENE daylight
26 Nov - 14:22:25 10° W 14:35:40 85° S 14:55:42 10° E daylight
26 Nov - 16:36:04 10° W 16:53:03 79° SSW 17:13:03 10° ESE visible
26 Nov - 18:51:36 10° WNW 19:09:52 51° SSW 19:26:45 10° SE visible
26 Nov - 21:12:18 10° W 21:24:04 20° SW 21:34:17 10° S visible
27 Nov - 11:00:05 10° SSW 11:07:51 40° SE 11:20:47 10° E daylight
27 Nov - 13:10:18 10° WSW 13:21:17 78° SSE 13:39:45 10° E daylight
27 Nov - 15:22:57 10° W 15:37:45 85° S 15:58:09 10° ESE daylight
27 Nov - 17:37:16 10° W 17:55:02 64° SSW 18:13:57 10° SE visible
27 Nov - 19:54:32 10° W 20:10:35 32° SW 20:24:55 10° SSE visible
28 Nov - 09:50:31 10° S 09:56:05 22° SE 10:04:09 10° E daylight
28 Nov - 11:58:48 10° SW 12:07:47 64° SSE 12:23:41 10° E daylight
28 Nov - 14:10:24 10° W 14:22:51 86° S 14:42:31 10° E daylight
28 Nov - 16:23:43 10° W 16:39:52 75° SSW 16:59:59 10° ESE visible
28 Nov - 18:39:02 10° W 18:56:25 46° SW 19:13:31 10° SSE visible
28 Nov - 21:00:55 10° W 21:10:43 16° SW 21:19:42 10° SSW visible
29 Nov - 10:47:58 10° SW 10:55:12 44° SE 11:07:41 10° E daylight
29 Nov - 12:58:22 10° WSW 13:08:38 81° SSE 13:26:28 10° E daylight
29 Nov - 15:10:49 10° W 15:24:47 83° S 15:45:00 10° ESE daylight
29 Nov - 17:24:49 10° W 17:41:41 59° SSW 18:00:44 10° SE visible
29 Nov - 19:42:17 10° W 19:57:08 28° SW 20:11:09 10° S visible
30 Nov - 09:38:05 10° S 09:43:28 25° SE 09:51:34 10° E daylight
30 Nov - 11:46:52 10° WSW 11:55:14 69° SSE 12:10:25 10° E daylight
30 Nov - 13:58:26 10° W 14:10:07 86° S 14:29:16 10° E daylight
30 Nov - 16:11:27 10° W 16:26:43 71° SSW 16:46:46 10° ESE daylight
30 Nov - 18:26:38 10° W 18:42:59 41° SW 19:00:00 10° SSE visible
30 Nov - 20:50:44 10° WSW 20:57:26 13° SW 21:03:52 10° SSW visible
01 Dec - 10:35:57 10° SW 10:42:42 49° SSE 10:54:35 10° E daylight
01 Dec - 12:46:30 10° WSW 12:56:05 84° S 13:13:10 10° E daylight
01 Dec - 14:58:44 10° W 15:11:52 80° SSW 15:31:44 10° ESE daylight
01 Dec - 17:12:28 10° W 17:28:22 53° SSW 17:47:18 10° SE visible
01 Dec - 19:30:23 10° W 19:43:45 24° SW 19:56:58 10° S visible
